sat.trackr.live / text

‹ back to catalog

STARLINK-30998

NORAD 58513 · 2023-191F

PAYLOAD ACTIVE UNKNOWN

§ Identity

Operator
Country
US
Launch date
2023-12-07
Launch site
AFETR
Launch vehicle
Mass (kg)
RCS (m²)

Purposes: comms

External: N2YO · Heavens-Above · Gunter

§ Orbital elements

Epoch: 2026-05-25T00:59:19.837248Z

Period
94.27 min
Inclination
43.0044°
Eccentricity
0.0001020
Mean motion
15.27584158 rev/d
Perigee alt
482.3 km
Apogee alt
483.7 km
Semi-major
6,861.2 km
B*
3.9086e-5
RAAN
32.6479°
Arg perigee
251.9298°
Mean anomaly
108.1443°
Rev number
13,717

§ Raw data

STARLINK-309981 58513U 23191F   26145.04120182  .00000814  00000+0  39086-4 0  99962 58513  43.0044  32.6479 0001020 251.9298 108.1443 15.27584158137175

JSON: /api/v1/satellites/58513 · /tle

For live sub-satellite position, see the globe view (requires WebGL).

§ Visibility from observer

Set your observer location to see the next 7 days of passes ≥ 10°. The values pass through the URL so the page stays shareable.

No JS? Fill the form by hand. The geolocation button needs JavaScript.